User: anonymous   Login
Location: El Corozo
(10.5833°N, 66.9667°W)
Time: 03:07:42
(UTC+00:00)
Language:

Palapa 6 Rocket - Orbit

View from above orbital plane
View from above orbital plane
View from above satellite
View from above satellite

Ground track
Ground track

The orbit data is extracted from the following two-line orbital elements,

1 20571U 90034B   24200.57762379  .00007176  00000-0  99657-3 0  9995
2 20571  22.7442 173.5155 0486852   7.3606 353.3712 14.17514153759074
Epoch (UTC): 18 July 2024 13:51:46
Eccentricity: 0.0486852
inclination: 22.7442°
perigee height: 482 km
apogee height: 1185 km
right ascension of ascending node: 173.5155°
argument of perigee: 7.3606°
revolutions per day: 14.17514153
mean anomaly at epoch: 353.3712°
orbit number at epoch: 75907

The dashed part of the orbit path shows where the satellite is in the earth's shadow,  

DLR